EWG6900 EDDK-EDDL

Flight info

Callsign EWG6900
Flight time 0h 13m
Altitude 6000
Route NVO3B NVO T857 BIKMU BIKMU1A
Aircraft A321/M-SDE3FGHIRWY/LB1

Departure

Time 2026-05-06 20:01
Airport Cologne Bonn Airport (EDDK)

Arrival

Time 2026-05-06 20:15
Airport Düsseldorf Airport (EDDL)
Time Latitude Longitude Altitude Speed Heading
2026-05-06 19:35 50.88081 7.12140 233 ft 0 kts 216°
2026-05-06 19:48 50.88090 7.12150 233 ft 4 kts 216°
2026-05-06 19:48 50.88110 7.12174 235 ft 4 kts 208°
2026-05-06 19:48 50.88133 7.12188 235 ft 4 kts 186°
2026-05-06 19:49 50.88159 7.12185 236 ft 4 kts 146°
2026-05-06 19:49 50.88169 7.12170 235 ft 1 kts 126°
2026-05-06 19:49 50.88170 7.12167 233 ft 0 kts 126°
2026-05-06 19:51 50.88163 7.12183 236 ft 3 kts 126°
2026-05-06 19:51 50.88145 7.12222 235 ft 5 kts 126°
2026-05-06 19:52 50.88119 7.12278 233 ft 8 kts 127°
2026-05-06 19:52 50.88083 7.12354 233 ft 10 kts 126°
2026-05-06 19:52 50.88038 7.12439 233 ft 10 kts 135°
2026-05-06 19:52 50.87986 7.12515 233 ft 10 kts 137°
2026-05-06 19:53 50.87938 7.12585 233 ft 9 kts 137°
2026-05-06 19:53 50.87876 7.12609 233 ft 10 kts 182°
2026-05-06 19:53 50.87813 7.12639 232 ft 9 kts 145°
2026-05-06 19:53 50.87770 7.12699 233 ft 9 kts 137°
2026-05-06 19:54 50.87718 7.12772 233 ft 11 kts 138°
2026-05-06 19:54 50.87661 7.12857 233 ft 11 kts 137°
2026-05-06 19:54 50.87603 7.12940 233 ft 11 kts 138°
2026-05-06 19:54 50.87547 7.13019 233 ft 10 kts 137°
2026-05-06 19:55 50.87527 7.13048 233 ft 0 kts 136°
2026-05-06 19:55 50.87523 7.13054 233 ft 3 kts 136°
2026-05-06 19:56 50.87500 7.13088 233 ft 6 kts 137°
2026-05-06 19:56 50.87458 7.13150 233 ft 10 kts 137°
2026-05-06 19:56 50.87400 7.13233 233 ft 13 kts 137°
2026-05-06 19:56 50.87332 7.13331 232 ft 12 kts 137°
2026-05-06 19:57 50.87270 7.13420 234 ft 11 kts 138°
2026-05-06 19:57 50.87217 7.13495 238 ft 10 kts 137°
2026-05-06 19:57 50.87165 7.13571 238 ft 12 kts 137°
2026-05-06 19:57 50.87095 7.13674 240 ft 15 kts 137°
2026-05-06 19:58 50.87013 7.13793 243 ft 17 kts 137°
2026-05-06 19:58 50.86943 7.13897 248 ft 0 kts 129°
2026-05-06 19:59 50.86941 7.13902 249 ft 2 kts 126°
2026-05-06 19:59 50.86929 7.13946 251 ft 7 kts 107°
2026-05-06 19:59 50.86917 7.14044 254 ft 11 kts 99°
2026-05-06 19:59 50.86903 7.14182 255 ft 15 kts 98°
2026-05-06 20:00 50.86886 7.14364 259 ft 17 kts 100°
2026-05-06 20:00 50.86873 7.14483 261 ft 8 kts 100°
2026-05-06 20:00 50.86895 7.14562 261 ft 9 kts 20°
2026-05-06 20:00 50.86930 7.14527 259 ft 0 kts 319°
2026-05-06 20:01 50.86962 7.14483 258 ft 39 kts 318°
2026-05-06 20:01 50.87441 7.13788 242 ft 143 kts 317°
2026-05-06 20:01 50.88245 7.12587 1008 ft 160 kts 316°
2026-05-06 20:02 50.89062 7.11400 2162 ft 160 kts 320°
2026-05-06 20:02 50.89939 7.10157 2847 ft 180 kts 320°
2026-05-06 20:02 50.90868 7.08696 3543 ft 195 kts 307°
2026-05-06 20:02 50.91304 7.06646 4401 ft 207 kts 276°
2026-05-06 20:03 50.91027 7.04350 4862 ft 234 kts 254°
2026-05-06 20:03 50.90504 7.01913 5426 ft 251 kts 253°
2026-05-06 20:03 50.89925 6.99263 6237 ft 257 kts 253°
2026-05-06 20:03 50.89316 6.96466 6778 ft 278 kts 253°
2026-05-06 20:04 50.88745 6.93537 6892 ft 278 kts 263°
2026-05-06 20:04 50.88779 6.90534 6915 ft 272 kts 286°
2026-05-06 20:04 50.89549 6.87845 6915 ft 267 kts 309°
2026-05-06 20:04 50.90722 6.85882 6916 ft 265 kts 318°
2026-05-06 20:05 50.92074 6.83831 6920 ft 265 kts 318°
2026-05-06 20:05 50.93380 6.81847 6914 ft 263 kts 318°
2026-05-06 20:05 50.94662 6.79893 6915 ft 246 kts 318°
2026-05-06 20:05 50.95888 6.78022 6915 ft 245 kts 318°
2026-05-06 20:06 50.97115 6.76146 6914 ft 245 kts 318°
2026-05-06 20:06 50.98336 6.74273 6855 ft 243 kts 318°
2026-05-06 20:06 50.99551 6.72401 6496 ft 242 kts 318°
2026-05-06 20:06 51.00753 6.70549 6136 ft 241 kts 318°
2026-05-06 20:07 51.01938 6.68722 5765 ft 239 kts 318°
2026-05-06 20:07 51.03112 6.66912 5476 ft 234 kts 318°
2026-05-06 20:07 51.04266 6.65134 5340 ft 223 kts 318°
2026-05-06 20:07 51.05348 6.63465 5112 ft 217 kts 318°
2026-05-06 20:08 51.06437 6.61787 4823 ft 215 kts 318°
2026-05-06 20:08 51.07502 6.60148 4480 ft 215 kts 318°
2026-05-06 20:08 51.08559 6.58519 4047 ft 212 kts 318°
2026-05-06 20:08 51.09616 6.56889 3561 ft 211 kts 318°
2026-05-06 20:09 51.10668 6.55262 3101 ft 210 kts 318°
2026-05-06 20:09 51.11713 6.53642 3008 ft 210 kts 318°
2026-05-06 20:09 51.12847 6.52186 2995 ft 209 kts 336°
2026-05-06 20:09 51.14227 6.51907 3008 ft 195 kts 12°
2026-05-06 20:10 51.15470 6.52714 3067 ft 189 kts 30°
2026-05-06 20:10 51.16560 6.53807 3240 ft 188 kts 28°
2026-05-06 20:10 51.17670 6.54913 2954 ft 187 kts 32°
2026-05-06 20:10 51.18693 6.56160 2849 ft 186 kts 42°
2026-05-06 20:11 51.19522 6.57748 2863 ft 187 kts 50°
2026-05-06 20:11 51.20352 6.59342 2824 ft 183 kts 50°
2026-05-06 20:11 51.21079 6.60903 2613 ft 168 kts 52°
2026-05-06 20:11 51.21743 6.62389 2327 ft 159 kts 50°
2026-05-06 20:12 51.22442 6.63707 2159 ft 154 kts 47°
2026-05-06 20:12 51.23107 6.65054 2121 ft 155 kts 50°
2026-05-06 20:12 51.23750 6.66424 1792 ft 151 kts 50°
2026-05-06 20:12 51.24344 6.67692 1432 ft 136 kts 50°
2026-05-06 20:13 51.24886 6.68828 1186 ft 123 kts 49°
2026-05-06 20:13 51.25414 6.69871 1015 ft 120 kts 47°
2026-05-06 20:13 51.25929 6.70916 822 ft 119 kts 49°
2026-05-06 20:13 51.26419 6.71978 687 ft 119 kts 51°
2026-05-06 20:14 51.26910 6.73031 588 ft 118 kts 49°
2026-05-06 20:14 51.27420 6.74035 410 ft 118 kts 50°
2026-05-06 20:14 51.27907 6.75082 233 ft 117 kts 50°
2026-05-06 20:14 51.28392 6.76111 133 ft 106 kts 51°
2026-05-06 20:15 51.28695 6.76740 140 ft 47 kts 52°
2026-05-06 20:15 51.28868 6.77100 140 ft 43 kts 52°
2026-05-06 20:15 51.29004 6.77390 140 ft 18 kts 61°
2026-05-06 20:15 51.29019 6.77563 143 ft 13 kts 120°
2026-05-06 20:16 51.28954 6.77635 144 ft 11 kts 146°
2026-05-06 20:16 51.28893 6.77637 141 ft 7 kts 239°
2026-05-06 20:16 51.28848 6.77526 140 ft 15 kts 234°
2026-05-06 20:16 51.28776 6.77371 141 ft 19 kts 233°
2026-05-06 20:17 51.28696 6.77211 141 ft 20 kts 232°
2026-05-06 20:17 51.28607 6.77017 142 ft 24 kts 234°
2026-05-06 20:17 51.28493 6.76789 139 ft 29 kts 232°
2026-05-06 20:17 51.28391 6.76566 134 ft 27 kts 233°
2026-05-06 20:18 51.28281 6.76343 132 ft 23 kts 223°
2026-05-06 20:18 51.28203 6.76177 134 ft 14 kts 235°
2026-05-06 20:18 51.28148 6.76055 134 ft 11 kts 230°
2026-05-06 20:18 51.28075 6.76046 134 ft 12 kts 172°
2026-05-06 20:19 51.27973 6.76048 133 ft 18 kts 179°
2026-05-06 20:19 51.27864 6.76051 126 ft 11 kts 167°
2026-05-06 20:19 51.27843 6.76141 130 ft 10 kts 96°
2026-05-06 20:19 51.27840 6.76274 130 ft 11 kts 89°
2026-05-06 20:20 51.27853 6.76360 128 ft 3 kts 57°
2026-05-06 20:20 51.27863 6.76377 130 ft 0 kts 45°